World > North America > United States > Washington > Chelan   City of Chelan, WA

Chelan, WA Hourly Weather Updates

Feedback E-mail the Weather

Quick WX

Chelan, WA Weather Maps

°F °C°F °C
Chelan Weather Map
UTC Time: 3/1/2024, 21:35
Your Time:

Chelan, WA Regional Weather

Expires:202403012200;;227092
ASUS46 KSEW 012120
RWRWA 

WASHINGTON REGIONAL WEATHER ROUNDUP
NATIONAL WEATHER SERVICE SEATTLE WA
100 PM PST FRI MAR 01 2024

NOTE:"FAIR" INDICATES FEW OR NO CLOUDS BELOW 12,000 FEET WITH NO 
SIGNIFICANT WEATHER AND/OR OBSTRUCTIONS TO VISIBILITY.


WAZ026-027-041>044-520-521-012200-
EAST SLOPES
  
CITY           SKY/WX    TMP DP  RH WIND       PRES   REMARKS
OMAK           PTSUNNY   46  23  40 S15       29.51F TC   8           
WENATCHEE      CLOUDY    42  24  49 S17G36    29.49R TC   6           
ELLENSBURG     CLOUDY    41  26  55 SE9       29.47F TC   5           
YAKIMA         CLOUDY    42  27  55 S16G26    29.49F TC   6           
SUNNYSIDE ARPT CLOUDY    47  31  53 S12       29.49  TC   8           
YAKIMA TC      LGTSLEET  37  30  75 SE3       29.44F TC   3           
$$


SKY/WX - Weather  TMP - Temperature  DP - Dew Point  RH - Humidity
WIND - Wind Direction/Speed PRES - Barometric Pressure VSB - Visibility
WCI - Wind Chill Index E13G22 Wind - East Wind 13 mph/Gusts of 22 mph

Trending Headlines

Trending Entertainment Headlines

Chelan Radar Loop

Use the map search tool if you want to place a location marker on the radar map...

Chelan Quick Facts

National Two Day Weather Forecast


E-mail the Chelan Weather Forecast

Voice your opinion or tell us about page issues...